Date String (YYYY-MM-DD hh:mm:ss) UTC,Instrument flags,absolute air pressure of the measurement (hPa),sample flow rate (lpm),inlet stack bypass flow (lpm),air temperature of the measurement (°C),ambient temperature measured by the external sensor (°C),aerosol sample conditioner tube jacket temperature (°C),OPC LED temperature (°C),internal box temperature (°C),relative humidity of the measurement (%),span deviation,mass concentration of particles derived from Lorenz-Mie calculation of OPC scattering (μg/m³),mass concentration of particles derived from Lorenz-Mie calculation of OPC scattering (μg/m³),mass concentration of particles derived from Lorenz-Mie calculation of OPC scattering (μg/m³)
DateTimeUTC,F1_M11,P_M11,Q1_M11,Q2_M11,T1_M11,T2_M11,T3_M11,T4_M11,T5_M11,U1_M11,ZSPAN_M11,X0_M11,X2_M11,X1_M11
2023-09-02 12:00:00,SystemResetWarning,0833.5,4.99,000.00,028.2,027.1,000.0,036.6,029.9,24.8,0000.0,0011.48,0004.22,0003.55
2023-09-02 12:01:00,SystemResetWarning,0833.2,5.00,000.00,028.3,027.2,000.0,036.6,029.9,24.8,0000.0,0011.45,0004.23,0003.55
2023-09-02 12:02:00,SystemResetWarning,0833.3,5.00,000.00,028.3,027.3,000.0,036.6,030.0,24.7,0000.0,0011.40,0004.25,0003.55
2023-09-02 12:03:00,SystemResetWarning,0833.1,5.00,000.00,028.3,027.3,000.0,036.7,030.0,24.6,0000.0,0010.98,0004.23,0003.54
2023-09-02 12:04:00,SystemResetWarning,0833.1,4.99,000.00,028.4,027.1,000.0,036.7,030.0,24.6,0000.0,0010.83,0004.21,0003.54
2023-09-02 12:05:00,SystemResetWarning,0833.1,5.00,000.00,028.3,025.5,000.0,036.6,029.5,24.7,0000.0,0010.79,0004.23,0003.54
2023-09-02 12:06:00,SystemResetWarning,0833.1,5.01,000.00,028.2,024.8,000.0,036.5,029.3,24.7,0000.0,0010.83,0004.26,0003.54
2023-09-02 12:07:00,SystemResetWarning,0833.0,5.01,000.00,028.1,024.8,000.0,036.5,029.3,24.9,0000.0,0010.76,0004.29,0003.55
2023-09-02 12:08:00,SystemResetWarning,0833.0,5.00,000.00,028.0,025.1,000.0,036.5,029.3,25.0,0000.0,0011.22,0004.31,0003.56
2023-09-02 12:09:00,SystemResetWarning,0833.2,5.01,000.00,028.0,025.5,000.0,036.5,029.4,25.0,0000.0,0011.04,0004.31,0003.56
2023-09-02 12:10:00,SystemResetWarning,0833.0,5.00,000.00,028.0,025.8,000.0,036.5,029.5,25.0,0000.0,0010.86,0004.32,0003.55
2023-09-02 12:11:00,SystemResetWarning,0833.1,5.00,000.00,028.0,026.1,000.0,036.5,029.6,24.9,0000.0,0010.77,0004.33,0003.55
2023-09-02 12:12:00,SystemResetWarning,0833.1,5.00,000.00,028.1,026.4,000.0,036.5,029.7,24.9,0000.0,0010.61,0004.31,0003.54
2023-09-02 12:13:00,SystemResetWarning,0833.1,5.00,000.00,028.1,026.6,000.0,036.5,029.7,24.9,0000.0,0010.33,0004.29,0003.53
2023-09-02 12:14:00,SystemResetWarning,0833.1,5.00,000.00,028.1,026.7,000.0,036.5,029.8,24.8,0000.0,0010.58,0004.31,0003.53
2023-09-02 12:15:00,SystemResetWarning,0833.1,5.01,000.00,028.2,026.9,000.0,036.6,029.8,24.7,0000.0,0011.00,0004.28,0003.53
2023-09-02 12:16:00,SystemResetWarning,0833.1,4.99,000.00,028.2,027.0,000.0,036.6,029.9,24.6,0000.0,0011.02,0004.22,0003.52
2023-09-02 12:17:00,SystemResetWarning,0833.1,4.99,000.00,028.3,027.1,000.0,036.6,029.9,24.5,0000.0,0010.91,0004.21,0003.51
2023-09-02 12:18:00,SystemResetWarning,0833.1,5.01,000.00,028.3,027.2,000.0,036.6,030.0,24.5,0000.0,0010.69,0004.22,0003.50
2023-09-02 12:19:00,SystemResetWarning,0833.1,5.01,000.00,028.3,027.3,000.0,036.7,030.0,24.4,0000.0,0010.50,0004.20,0003.49
2023-09-02 12:20:00,SystemResetWarning,0833.2,5.01,000.00,028.4,027.4,000.0,036.7,030.0,24.4,0000.0,0010.50,0004.22,0003.49
2023-09-02 12:21:00,SystemResetWarning,0833.2,4.98,000.00,028.4,026.4,000.0,036.6,029.8,24.4,0000.0,0010.71,0004.23,0003.49
2023-09-02 12:22:00,SystemResetWarning,0833.1,5.01,000.00,028.3,025.1,000.0,036.6,029.4,24.6,0000.0,0010.67,0004.21,0003.48
2023-09-02 12:23:00,SystemResetWarning,0833.1,5.02,000.00,028.2,024.8,000.0,036.5,029.3,24.6,0000.0,0010.62,0004.19,0003.48
2023-09-02 12:24:00,SystemResetWarning,0833.2,4.99,000.00,028.1,025.0,000.0,036.5,029.3,24.8,0000.0,0010.97,0004.21,0003.49
2023-09-02 12:25:00,SystemResetWarning,0833.2,4.99,000.00,028.0,025.3,000.0,036.5,029.4,24.9,0000.0,0011.27,0004.23,0003.49
2023-09-02 12:26:00,SystemResetWarning,0833.2,5.00,000.00,028.1,025.7,000.0,036.5,029.5,24.9,0000.0,0010.59,0004.24,0003.49
2023-09-02 12:27:00,SystemResetWarning,0833.2,5.00,000.00,028.1,026.0,000.0,036.5,029.6,25.0,0000.0,0010.34,0004.27,0003.49
2023-09-02 12:28:00,SystemResetWarning,0833.2,5.01,000.00,028.1,026.3,000.0,036.5,029.7,25.0,0000.0,0010.32,0004.27,0003.49
2023-09-02 12:29:00,SystemResetWarning,0833.2,5.00,000.00,028.1,026.5,000.0,036.6,029.7,24.9,0000.0,0010.22,0004.24,0003.49
2023-09-02 12:30:00,SystemResetWarning,0833.2,5.00,000.00,028.1,026.7,000.0,036.6,029.8,24.8,0000.0,0010.21,0004.24,0003.49
2023-09-02 12:31:00,SystemResetWarning,0833.2,5.00,000.00,028.2,026.8,000.0,036.6,029.8,24.8,0000.0,0010.64,0004.24,0003.49
2023-09-02 12:32:00,SystemResetWarning,0833.3,5.00,000.00,028.2,027.0,000.0,036.6,029.9,24.8,0000.0,0010.44,0004.25,0003.49
2023-09-02 12:33:00,SystemResetWarning,0833.3,5.00,000.00,028.3,027.1,000.0,036.6,029.9,24.7,0000.0,0010.21,0004.25,0003.48
2023-09-02 12:34:00,SystemResetWarning,0833.2,5.00,000.00,028.3,027.2,000.0,036.6,029.9,24.7,0000.0,0010.36,0004.28,0003.48
2023-09-02 12:35:00,SystemResetWarning,0833.3,5.00,000.00,028.3,027.3,000.0,036.7,030.0,24.6,0000.0,0010.19,0004.29,0003.48
2023-09-02 12:36:00,SystemResetWarning,0833.3,5.00,000.00,028.4,027.4,000.0,036.7,030.1,24.7,0000.0,0009.62,0004.29,0003.47
2023-09-02 12:37:00,SystemResetWarning,0833.3,4.99,000.00,028.4,027.1,000.0,036.7,030.0,24.6,0000.0,0009.53,0004.27,0003.47
2023-09-02 12:38:00,SystemResetWarning,0833.3,4.99,000.00,028.3,025.6,000.0,036.6,029.6,24.7,0000.0,0009.55,0004.26,0003.47
2023-09-02 12:39:00,SystemResetWarning,0833.3,5.00,000.00,028.2,024.8,000.0,036.5,029.4,24.9,0000.0,0009.38,0004.22,0003.46
2023-09-02 12:40:00,SystemResetWarning,0833.3,5.01,000.00,028.1,024.8,000.0,036.5,029.3,25.1,0000.0,0009.34,0004.20,0003.45
2023-09-02 12:41:00,SystemResetWarning,0833.3,5.01,000.00,028.1,025.1,000.0,036.5,029.3,25.2,0000.0,0009.33,0004.19,0003.45
2023-09-02 12:42:00,SystemResetWarning,0833.3,5.00,000.00,028.1,025.5,000.0,036.5,029.4,25.2,0000.0,0008.93,0004.19,0003.45
2023-09-02 12:43:00,SystemResetWarning,0833.3,5.00,000.00,028.1,025.8,000.0,036.5,029.5,25.2,0000.0,0008.49,0004.17,0003.44
2023-09-02 12:44:00,SystemResetWarning,0833.4,5.00,000.00,028.1,026.1,000.0,036.5,029.6,25.1,0000.0,0008.79,0004.19,0003.44
2023-09-02 12:45:00,SystemResetWarning,0833.4,5.00,000.00,028.1,026.4,000.0,036.6,029.7,25.2,0000.0,0009.44,0004.20,0003.45
2023-09-02 12:46:00,SystemResetWarning,0833.4,5.00,000.00,028.1,026.6,000.0,036.6,029.7,25.1,0000.0,0009.38,0004.16,0003.44
2023-09-02 12:47:00,SystemResetWarning,0833.4,5.00,000.00,028.2,026.8,000.0,036.6,029.8,25.0,0000.0,0009.34,0004.13,0003.44
2023-09-02 12:48:00,SystemResetWarning,0833.4,5.00,000.00,028.2,026.9,000.0,036.6,029.8,25.0,0000.0,0009.79,0004.13,0003.43
2023-09-02 12:49:00,SystemResetWarning,0833.4,5.00,000.00,028.2,027.0,000.0,036.6,029.9,24.9,0000.0,0009.81,0004.15,0003.42
2023-09-02 12:50:00,SystemResetWarning,0833.4,5.00,000.00,028.3,027.2,000.0,036.6,029.9,25.0,0000.0,0009.84,0004.17,0003.42
2023-09-02 12:51:00,SystemResetWarning,0833.4,5.00,000.00,028.3,027.2,000.0,036.7,030.0,24.9,0000.0,0009.86,0004.20,0003.42
2023-09-02 12:52:00,SystemResetWarning,0833.4,4.99,000.00,028.4,027.3,000.0,036.7,030.0,24.8,0000.0,0010.12,0004.23,0003.42
2023-09-02 12:53:00,SystemResetWarning,0833.4,4.99,000.00,028.4,027.1,000.0,036.7,030.0,24.7,0000.0,0010.26,0004.26,0003.40
2023-09-02 12:54:00,SystemResetWarning,0833.4,5.01,000.00,028.3,025.6,000.0,036.6,029.6,24.8,0000.0,0010.27,0004.25,0003.41
2023-09-02 12:55:00,SystemResetWarning,0833.4,5.01,000.00,028.2,024.9,000.0,036.5,029.5,25.1,0000.0,0009.94,0004.21,0003.41
2023-09-02 12:56:00,SystemResetWarning,0833.4,4.99,000.00,028.2,025.0,000.0,036.5,029.4,25.2,0000.0,0009.24,0004.15,0003.40
2023-09-02 12:57:00,SystemResetWarning,0833.4,5.00,000.00,028.1,025.3,000.0,036.5,029.4,25.4,0000.0,0008.83,0004.13,0003.40
2023-09-02 12:58:00,SystemResetWarning,0833.5,4.99,000.00,028.1,025.6,000.0,036.6,029.5,25.4,0000.0,0008.84,0004.15,0003.40
2023-09-02 12:59:00,SystemResetWarning,0833.4,5.01,000.00,028.1,025.9,000.0,036.6,029.6,25.2,0000.0,0008.41,0004.14,0003.40
